Stündliche Wetter Czyzowice

Heute, 28 Oktober, Mittwoch

Zeit Temperatur Niederschläge Wind Luftdruck Luftfeuchtigkeit
00:00 +10°C° 0 mm 2 m/S 741 mmHg 92%
01:00 +10°C° 0 mm 2 m/S 741 mmHg 94%
02:00 +11°C° 0 mm 1 m/S 741 mmHg 94%
03:00 +11°C° 0 mm 1 m/S 741 mmHg 94%
04:00 +9°C° 0 mm 0 m/S 741 mmHg 94%
05:00 +9°C° 0 mm 0 m/S 741 mmHg 94%
06:00 +9°C° 0 mm 0 m/S 741 mmHg 94%
07:00 +9°C° 0 mm 0 m/S 741 mmHg 94%
08:00 +12°C° 0 mm 1 m/S 741 mmHg 89%
09:00 +13°C° 0 mm 1 m/S 742 mmHg 83%
10:00 +14°C° 0 mm 1 m/S 742 mmHg 78%
11:00 +15°C° 0 mm 1 m/S 741 mmHg 74%
12:00 +16°C° 0 mm 1 m/S 741 mmHg 70%
13:00 +18°C° 0 mm 1 m/S 741 mmHg 66%
14:00 +16°C° 0 mm 1 m/S 741 mmHg 69%
15:00 +15°C° 0 mm 1 m/S 741 mmHg 72%
16:00 +15°C° 0 mm 1 m/S 741 mmHg 75%
17:00 +14°C° 0 mm 1 m/S 741 mmHg 78%
18:00 +13°C° 0 mm 1 m/S 741 mmHg 81%
19:00 +13°C° 0 mm 1 m/S 741 mmHg 84%
20:00 +12°C° 0 mm 1 m/S 742 mmHg 85%
21:00 +11°C° 0 mm 1 m/S 742 mmHg 87%
22:00 +10°C° 0 mm 2 m/S 742 mmHg 88%
23:00 +10°C° 0 mm 2 m/S 742 mmHg 88%

Morgen, 29 Oktober, Donnerstag

Zeit Temperatur Niederschläge Wind Luftdruck Luftfeuchtigkeit
00:00 +10°C° 0 mm 2 m/S 742 mmHg 88%
01:00 +9°C° 0 mm 2 m/S 742 mmHg 88%
02:00 +9°C° 0 mm 2 m/S 742 mmHg 89%
03:00 +9°C° 0 mm 2 m/S 742 mmHg 89%
04:00 +9°C° 0 mm 2 m/S 742 mmHg 89%
05:00 +9°C° 0 mm 2 m/S 742 mmHg 88%
06:00 +9°C° 0 mm 2 m/S 742 mmHg 86%
07:00 +9°C° 0 mm 2 m/S 742 mmHg 84%
08:00 +11°C° 0 mm 3 m/S 742 mmHg 76%
09:00 +12°C° 0 mm 3 m/S 742 mmHg 68%
10:00 +13°C° 0 mm 4 m/S 742 mmHg 60%
11:00 +14°C° 0 mm 4 m/S 742 mmHg 60%
12:00 +14°C° 0 mm 5 m/S 742 mmHg 59%
13:00 +14°C° 0 mm 6 m/S 741 mmHg 59%
14:00 +13°C° 0 mm 5 m/S 741 mmHg 63%
15:00 +13°C° 0 mm 5 m/S 741 mmHg 67%
16:00 +12°C° 0 mm 4 m/S 741 mmHg 71%
17:00 +11°C° 0.2 mm 4 m/S 741 mmHg 74%
18:00 +10°C° 0.2 mm 5 m/S 741 mmHg 78%
19:00 +10°C° 0.2 mm 5 m/S 741 mmHg 81%
20:00 +9°C° 0.1 mm 5 m/S 742 mmHg 80%
21:00 +8°C° 0.1 mm 5 m/S 742 mmHg 79%
22:00 +7°C° 0.1 mm 5 m/S 743 mmHg 78%
23:00 +7°C° 0 mm 5 m/S 743 mmHg 81%

übermorgen, 30 Oktober, Freitag

Zeit Temperatur Niederschläge Wind Luftdruck Luftfeuchtigkeit
00:00 +6°C° 0 mm 5 m/S 743 mmHg 83%
01:00 +6°C° 0 mm 5 m/S 744 mmHg 85%
02:00 +5°C° 0 mm 5 m/S 744 mmHg 86%
03:00 +5°C° 0 mm 4 m/S 745 mmHg 86%
04:00 +5°C° 0 mm 4 m/S 745 mmHg 87%
05:00 +4°C° 0 mm 4 m/S 745 mmHg 88%
06:00 +4°C° 0 mm 4 m/S 745 mmHg 88%
07:00 +4°C° 0 mm 3 m/S 745 mmHg 88%
08:00 +5°C° 0 mm 4 m/S 746 mmHg 81%
09:00 +7°C° 0 mm 4 m/S 746 mmHg 74%
10:00 +8°C° 0 mm 4 m/S 746 mmHg 66%
11:00 +10°C° 0 mm 4 m/S 745 mmHg 62%
12:00 +11°C° 0 mm 4 m/S 745 mmHg 58%
13:00 +11°C° 0 mm 4 m/S 745 mmHg 54%
14:00 +10°C° 0.3 mm 3 m/S 744 mmHg 63%
15:00 +9°C° 0.3 mm 3 m/S 744 mmHg 73%
16:00 +8°C° 0.3 mm 2 m/S 743 mmHg 82%
17:00 +8°C° 1.5 mm 3 m/S 743 mmHg 86%
18:00 +8°C° 1.5 mm 3 m/S 743 mmHg 89%
19:00 +7°C° 1.5 mm 4 m/S 743 mmHg 92%
20:00 +8°C° 1.7 mm 4 m/S 742 mmHg 93%
21:00 +9°C° 1.7 mm 5 m/S 742 mmHg 93%
22:00 +9°C° 1.7 mm 6 m/S 742 mmHg 93%
23:00 +9°C° 1.5 mm 6 m/S 742 mmHg 93%

31 Oktober, Samstag

Zeit Temperatur Niederschläge Wind Luftdruck Luftfeuchtigkeit
00:00 +9°C° 1.5 mm 5 m/S 742 mmHg 94%
01:00 +10°C° 1.5 mm 4 m/S 742 mmHg 94%
02:00 +8°C° 0.3 mm 4 m/S 743 mmHg 93%
03:00 +8°C° 0.3 mm 4 m/S 743 mmHg 92%
04:00 +7°C° 0.3 mm 4 m/S 744 mmHg 91%
05:00 +8°C° 0 mm 3 m/S 745 mmHg 89%
06:00 +7°C° 0 mm 3 m/S 745 mmHg 88%
07:00 +7°C° 0 mm 3 m/S 746 mmHg 87%
08:00 +8°C° 0 mm 3 m/S 747 mmHg 83%
09:00 +8°C° 0 mm 2 m/S 747 mmHg 78%
10:00 +9°C° 0 mm 2 m/S 748 mmHg 74%
11:00 +9°C° 0 mm 2 m/S 748 mmHg 70%
12:00 +11°C° 0 mm 1 m/S 748 mmHg 67%
13:00 +11°C° 0 mm 1 m/S 748 mmHg 63%
14:00 +11°C° 0 mm 1 m/S 748 mmHg 67%
15:00 +10°C° 0 mm 1 m/S 749 mmHg 70%
16:00 +9°C° 0 mm 1 m/S 749 mmHg 74%
17:00 +9°C° 0 mm 1 m/S 749 mmHg 77%
18:00 +8°C° 0 mm 1 m/S 749 mmHg 81%
19:00 +7°C° 0 mm 1 m/S 750 mmHg 84%
20:00 +7°C° 0 mm 1 m/S 750 mmHg 86%
21:00 +7°C° 0 mm 1 m/S 750 mmHg 88%
22:00 +6°C° 0 mm 1 m/S 750 mmHg 90%
23:00 +6°C° 0 mm 1 m/S 750 mmHg 90%

1 November, Sonntag

Zeit Temperatur Niederschläge Wind Luftdruck Luftfeuchtigkeit
00:00 +5°C° 0 mm 2 m/S 750 mmHg 91%
01:00 +5°C° 0 mm 2 m/S 750 mmHg 91%
02:00 +4°C° 0 mm 2 m/S 750 mmHg 91%
03:00 +4°C° 0 mm 2 m/S 749 mmHg 92%
04:00 +4°C° 0 mm 2 m/S 749 mmHg 92%
05:00 +4°C° 0 mm 2 m/S 749 mmHg 91%
06:00 +4°C° 0 mm 2 m/S 749 mmHg 91%
07:00 +3°C° 0 mm 2 m/S 749 mmHg 91%
08:00 +5°C° 0 mm 2 m/S 749 mmHg 84%
09:00 +7°C° 0 mm 2 m/S 749 mmHg 77%
10:00 +8°C° 0 mm 3 m/S 749 mmHg 69%
11:00 +9°C° 0 mm 2 m/S 748 mmHg 66%
12:00 +10°C° 0 mm 2 m/S 748 mmHg 62%
13:00 +12°C° 0 mm 2 m/S 748 mmHg 59%
14:00 +10°C° 0 mm 2 m/S 748 mmHg 64%
15:00 +10°C° 0 mm 2 m/S 747 mmHg 69%
16:00 +9°C° 0 mm 2 m/S 747 mmHg 74%
17:00 +8°C° 0 mm 2 m/S 747 mmHg 75%
18:00 +7°C° 0 mm 2 m/S 747 mmHg 77%
19:00 +7°C° 0 mm 2 m/S 747 mmHg 79%
20:00 +6°C° 0 mm 2 m/S 747 mmHg 77%
21:00 +6°C° 0 mm 2 m/S 747 mmHg 75%
22:00 +6°C° 0 mm 2 m/S 747 mmHg 73%
23:00 +7°C° 0 mm 1 m/S 747 mmHg 72%

2 November, Montag

Zeit Temperatur Niederschläge Wind Luftdruck Luftfeuchtigkeit
00:00 +7°C° 0 mm 1 m/S 747 mmHg 71%
01:00 +7°C° 0 mm 1 m/S 747 mmHg 70%
02:00 +6°C° 0 mm 1 m/S 747 mmHg 70%
03:00 +6°C° 0 mm 1 m/S 747 mmHg 70%
04:00 +6°C° 0 mm 1 m/S 747 mmHg 69%
05:00 +6°C° 0 mm 1 m/S 747 mmHg 68%
06:00 +6°C° 0 mm 1 m/S 747 mmHg 67%
07:00 +6°C° 0 mm 1 m/S 747 mmHg 66%
08:00 +8°C° 0 mm 1 m/S 747 mmHg 62%
09:00 +9°C° 0 mm 2 m/S 747 mmHg 58%
10:00 +10°C° 0 mm 2 m/S 747 mmHg 54%
11:00 +12°C° 0 mm 2 m/S 747 mmHg 53%
12:00 +14°C° 0 mm 2 m/S 747 mmHg 52%
13:00 +15°C° 0 mm 2 m/S 747 mmHg 51%
14:00 +14°C° 0 mm 2 m/S 747 mmHg 56%
15:00 +13°C° 0 mm 1 m/S 747 mmHg 60%
16:00 +11°C° 0 mm 1 m/S 747 mmHg 65%
17:00 +11°C° 0 mm 1 m/S 747 mmHg 68%
18:00 +11°C° 0 mm 1 m/S 747 mmHg 70%
19:00 +10°C° 0 mm 1 m/S 747 mmHg 73%
20:00 +10°C° 0 mm 1 m/S 747 mmHg 75%
21:00 +10°C° 0 mm 1 m/S 747 mmHg 77%
22:00 +10°C° 0 mm 1 m/S 747 mmHg 79%
23:00 +9°C° 0 mm 1 m/S 747 mmHg 80%
Mehr zeigen

Wir brauchen deine Erlaubnis

Meteoprog und unser Service Anbieter werden persönliche Daten aufbewahren, so wie Cookies, Geräte Bezeichnung oder ähnliche Technologien von deinem Gerät und Prozess, so wie Persönliche Daten Inhalte und Werbungen, genauso wie social Media und den Verkehr zu analysieren.

  • Aufbewahrung und/oder Zugang zu deiner Geräte Informationen.

    Cookies, Geräte Bezeichnung oder andere Informationen, können aufbewahrt oder Zugang zu deinem Gerät erhalten, für den Grund, der oben angegeben wird.

  • Personalisierte Werbung und Inhalte, Messungen, Einblick in das Publikum und Produkt Entwicklung.

    Werbungen und Inhalte können personalisiert werden, basierend auf ein Profil. Mehr Daten können besser personalisierte Werbungen und Inhalte hinzufügen. Werbung und Inhalte können gezeigt und gemessen werden. Einblicke über das Publikum, welche die Werbung gesehen haben und den Inhalt, können abgeleitet werden. So wie Daten können genutzt werden, um es zu verbessern oder die Benutzer Erfahrung zu verbessern das System und die Software.

Wenn du “Ich stimme zu” klickst, erlaubst du uns, die Cookies zu benutzen die Geräte Bezeichnung, den Web oder ähnliche Technologien zu benutzen. Deine Settings, können in deinem Gerät bei deinem Browser geändert werden.

Für den bestimmten Zweck, berechtigten Interessen beruhen darauf, mehr als auf den Inhalt. Du kannst mehr darüber in unseren Privaten und Cookie Politik lesen.